User: anonymous   Login
Location: *
(49.3500°N, 12.6000°E)
Time: 21:17:46
(UTC+00:00)
Language:

Cosmos 1726 - Orbit

View from above orbital plane
View from above orbital plane
View from above satellite
View from above satellite

Ground track
Ground track

The orbit data is extracted from the following two-line orbital elements,

1 16495U 86006A   19346.15418524  .00000702  00000-0  26959-4 0  9992
2 16495  82.4741 239.5834 0011172 247.7750 112.2302 15.24717935854609
Epoch (UTC): 12 December 2019 03:42:01
Eccentricity: 0.0011172
inclination: 82.4741°
perigee height: 484 km
apogee height: 499 km
right ascension of ascending node: 239.5834°
argument of perigee: 247.7750°
revolutions per day: 15.24717935
mean anomaly at epoch: 112.2302°
orbit number at epoch: 85460

The dashed part of the orbit path shows where the satellite is in the earth's shadow,  

DLR